PATHFINDER 1

Last updated on Wed Sep 17 2025 00:02:31 GMT+0000 (Coordinated Universal Time)

1 41787U 16059E 25259.56582687 .00000727 00000+0 13700-3 0 9997 2 41787 97.8159 266.3782 0028734 1.7843 358.3459 14.67079851479587
UTC large
Height (km)
Speed (km/s)
/
Latitude / Longitude
Inclination (degrees)
Orbital Period (minutes)
Azimuth
Elevation
Range (km)
Doppler Factor

Next 0 passes for location: London (51.5072 / 0.1276)

Sorry there are no passes over London.